COSMOS 2251 DEB, 34642

Orbit data source: Space-Track

COSMOS 2251 DEB, 34642 is space debris in LEO originally from a launch on Wed, 16 Jun 1993 UTC launched from the Plesetsk Missile And Space Complex (PKMTR). The debris from Iridium 33, an American commercial communications satellite, has been tracked extensively since its accidental collision with the defunct Russian satellite Cosmos 2251 in 2009. This event, occurring at high speed in low Earth orbit (LEO), generated thousands of pieces of space debris, significantly increasing the risk of further collisions. The Iridium 33 debris cloud has impacted space traffic management and orbital debris mitigation strategies, making it a subject of ongoing study in space situational awareness.

Loading next visibility...
Identifier
34642, 1993-036XP
Orbit
LEO
Country
Flag of CISCIS
Related business
Manufacturer
Unknown
Mission
Spacecraft
Bus & Motor
Unknown
Mass
Unknown
Launch date (UTC)
1993-06-16 (33 years ago)
Launch vehicle
Unknown
Launch site
Plesetsk Missile And Space Complex (PKMTR)
Object type
Payload
Rocket body
Debris
Shape & HBR
Unknown shape, 0.1 m
Radar Cross Section
Small (<0.1 m²)

Expand to show TLE details & history
Last TLE update: 7 hours ago

TLE from 7 hours ago
0 COSMOS 2251 DEB
1 34642U 93036XP  26121.29860134  .00001660  00000-0  95556-3 0  9991
2 34642  74.0016  97.9483 0210568 245.5380 180.6622 13.99488442872451
Epoch: 2026-05-01T07:09Z
TLE epoch observation values (Epoch: 2026-05-01T07:09:59.155Z)
Latitude
61.66214°
Longitude
163.15169°
Altitude
1,058.932 km
Speed
7.251 km/s
True Right ascension
08h 39m 31s
True Declination
61° 31' 27"
Sunlit
Object was in daylight at epoch
Visualization orbit readout
Latitude
Unknown
Longitude
Unknown
Altitude
Unknown
Speed
Unknown
Apparent Right ascension
Unknown
Apparent Declination
Unknown
Sunlit
N/A
Visualization observer readout
Local Sidereal Time
21:55:25
Azimuth
Unknown
Elevation
Unknown
Doppler factor
Unknown
Orbital elements
Apogee altitude
1,046.345 km
Perigee altitude
740.121 km
Semi-major axis
7,271.37 km
Eccentricity
0.02106
Inclination
74.0016°
RAAN
97.9483°
Arg. of periapsis
245.538°
True anomaly
180.63503°
Mean anomaly
180.6622°
Eccentric anomaly
180.64854°
Mean motion
3.50041 °/min
Orbital period
102.85 mins
BSTAR
0.00095556
Loading maneuver chart data...
Computing Atmospheric mass density...

Documentation

Showing up to 5 results
|